Location: Austin
(30.3000°N, 97.7500°W)
Time: 22:14:37
(UTC-06:00)

USA 59 Rocket - Pass Details

Date: 03 December 2025
Orbit: 370 x 1679 km, 63.3° (Epoch: 07 December)

Event Time Altitude Azimuth Distance (km) Brightness Sun altitude
Rises 06:36:55 0° 349° (N) 2,582 2.9 -7.7°
Reaches altitude 10° 06:39:10 10° 5° (N) 1,841 2.3 -7.3°
Maximum altitude 06:42:32 24° 60° (ENE) 1,380 2.4 -6.6°
Drops below altitude 10° 06:46:49 10° 113° (ESE) 2,408 5.0 -5.8°
Sets 06:50:12 0° 126° (SE) 3,609 6.0 -5.1°
